Temp
87 79 75 76 76 76 76 76 76 76 77 77 77 77 77 77 77 77 77 78 78 79 80 79 79 79 79 78 77 77 77 76 76 77 77 78 78 78 77 77 77 80 77
85 81 75 75 76 76 76 76 76 77 77 77 77 77 77 77 77 77 77 78 78 79 80 79 79 79 79 77 77 76 76 76 76 76 77 78 78 78 78 77 77 77 76
85 80 80 75 75 76 76 76 76 77 77 77 77 77 77 77 77 77 77 77 78 79 79 79 79 79 78 77 76 76 76 76 76 76 76 77 79 78 78 77 77 77 77
86 85 80 74 75 75 76 76 76 77 77 77 77 77 77 77 77 77 77 77 78 79 79 79 79 79 77 76 76 76 76 75 75 75 76 79 80 77 78 77 77 77 77
88 86 77 74 74 75 75 75 75 76 76 76 76 77 77 77 77 77 77 77 78 78 79 79 79 78 76 75 75 75 75 75 74 74 78 77 79 79 77 77 77 77 76
88 82 74 73 74 75 75 75 75 75 75 75 76 76 77 77 77 77 76 77 78 78 79 79 79 77 75 74 74 74 74 74 73 75 79 81 80 78 77 77 76 77 75
82 79 77 72 73 74 74 74 74 74 74 75 75 76 76 77 77 76 76 76 76 76 77 76 76 75 75 74 74 73 73 73 73 76 79 80 78 77 78 77 76 76 75
81 79 77 73 72 72 72 72 72 73 73 73 74 74 75 74 74 74 74 74 75 74 74 73 73 73 73 73 73 72 72 71 76 77 80 80 75 77 78 77 75 75 75
80 78 76 74 71 69 69 69 70 71 71 72 72 72 72 71 71 72 71 71 72 72 72 72 72 72 72 72 71 71 70 70 71 75 80 80 75 77 77 76 75 74 74
79 78 76 73 74 72 71 68 69 69 70 70 71 71 70 71 71 71 71 69 69 70 70 70 70 70 71 71 71 70 69 70 70 74 77 80 75 77 77 76 75 74 74
76 75 76 75 74 72 71 71 70 70 70 70 71 71 70 74 74 72 67 67 67 68 69 70 70 70 70 70 70 70 69 72 75 77 78 76 74 77 77 76 74 74 74
71 72 73 72 72 72 75 72 73 73 72 73 75 72 73 73 73 75 70 68 68 69 69 70 71 70 70 74 74 70 70 73 72 74 76 72 76 77 77 74 74 74 73
77 73 72 72 72 75 74 74 75 74 72 72 73 73 74 74 72 70 70 70 70 70 71 72 73 73 71 71 71 71 72 74 77 77 69 68 70 74 76 75 74 73 73
80 75 73 73 74 75 76 75 74 72 71 69 68 70 71 72 69 69 68 68 67 66 66 66 66 67 67 70 70 70 70 70 71 72 69 68 69 71 72 71 73 74 73
80 77 74 74 75 75 73 72 70 70 69 68 66 66 67 66 65 66 65 66 64 64 62 62 63 64 64 66 67 68 68 68 69 70 69 68 68 70 70 71 71 72 72
79 78 76 75 73 74 70 69 68 67 67 66 64 64 65 64 62 64 63 62 62 61 61 61 61 61 61 63 64 66 67 66 67 68 69 68 66 65 67 68 69 70 70
79 77 73 71 72 70 68 68 67 66 66 63 61 61 62 63 62 62 61 60 59 61 61 60 60 60 60 62 62 63 63 65 66 67 67 67 60 60 61 64 65 66 68
79 74 73 74 70 68 67 67 67 65 64 63 61 60 60 62 62 61 59 57 59 60 59 58 57 57 57 57 57 58 59 62 65 66 67 66 62 62 58 59 61 63 64
79 73 71 69 68 67 66 66 64 64 63 62 61 59 59 60 62 59 58 57 59 58 57 56 55 55 55 55 58 58 58 60 62 70 66 64 62 61 60 59 58 59 61
77 72 70 68 66 65 64 63 63 62 61 61 60 59 59 59 60 59 57 56 58 56 55 54 53 55 55 53 58 60 57 60 61 62 62 64 61 60 58 58 56 55 59
73 71 68 66 64 64 63 62 61 59 59 59 59 58 58 58 59 58 56 56 56 54 53 53 52 52 53 53 51 52 55 60 61 61 64 60 60 59 57 56 55 55 55
70 68 67 65 64 65 65 65 63 61 60 59 58 57 57 56 57 57 55 54 54 53 51 51 50 49 52 52 47 48 49 53 54 60 59 60 58 58 58 59 56 56 55
68 66 67 65 65 65 66 65 62 60 58 56 55 55 55 55 55 54 54 53 52 52 50 49 48 48 46 51 51 47 44 43 47 55 55 55 54 54 54 55 57 58 57
67 67 68 66 65 66 64 62 59 57 56 58 56 55 53 54 54 54 53 52 51 50 48 48 50 48 47 46 48 52 50 48 42 42 50 52 53 55 53 53 53 55 54
68 66 66 66 66 65 64 62 60 59 58 58 55 53 52 52 52 53 51 49 48 48 48 47 46 46 47 45 45 45 46 46 47 43 41 46 50 52 53 51 51 50 52
68 65 64 65 66 63 62 62 60 57 57 55 53 52 52 51 49 50 50 47 47 46 47 46 47 46 45 45 45 46 45 43 42 41 39 41 41 46 51 50 49 48 48
MSLP
1008.52 1009.80 1010.33 1010.93 1011.31 1011.59 1011.83 1012.00 1012.05 1012.35 1012.85 1013.33 1013.70 1013.84 1014.01 1014.24 1014.43 1014.49 1014.69 1014.98 1015.19 1015.34 1015.45 1015.64 1015.79 1015.90 1016.05 1016.11 1016.16 1016.22 1016.21 1016.13 1016.05 1015.98 1016.01 1016.07 1016.15 1016.17 1016.34 1016.52 1016.63 1016.72 1016.95
1008.45 1009.88 1010.61 1010.98 1011.34 1011.74 1012.08 1012.35 1012.54 1012.59 1013.09 1013.52 1013.84 1014.05 1014.11 1014.45 1014.61 1014.77 1014.98 1015.19 1015.41 1015.53 1015.69 1015.87 1016.02 1016.13 1016.20 1016.31 1016.36 1016.38 1016.40 1016.31 1016.29 1016.25 1016.40 1016.31 1016.44 1016.59 1016.54 1016.61 1016.60 1016.77 1017.06
1008.59 1009.96 1010.73 1011.19 1011.47 1011.89 1012.24 1012.51 1012.65 1012.98 1013.22 1013.64 1014.04 1014.21 1014.35 1014.63 1014.83 1014.93 1015.10 1015.31 1015.50 1015.59 1015.76 1015.94 1016.13 1016.25 1016.39 1016.47 1016.53 1016.58 1016.61 1016.56 1016.35 1016.36 1016.51 1016.26 1016.18 1016.42 1016.63 1016.76 1016.85 1016.98 1017.12
1008.85 1009.58 1010.65 1011.31 1011.59 1012.04 1012.43 1012.68 1012.91 1013.01 1013.40 1013.88 1014.14 1014.38 1014.61 1014.85 1015.02 1015.17 1015.31 1015.45 1015.59 1015.73 1015.92 1016.00 1016.11 1016.25 1016.31 1016.45 1016.51 1016.59 1016.61 1016.51 1016.28 1016.28 1016.47 1016.25 1016.19 1016.49 1016.39 1016.73 1016.97 1017.13 1017.24
1008.82 1009.56 1010.87 1011.43 1011.71 1012.03 1012.28 1012.79 1013.01 1013.21 1013.39 1013.90 1014.20 1014.44 1014.71 1014.98 1015.19 1015.30 1015.55 1015.75 1015.86 1015.95 1016.01 1016.10 1016.15 1016.34 1016.50 1016.52 1016.56 1016.51 1016.49 1016.39 1016.24 1016.22 1015.87 1015.93 1015.76 1016.44 1016.46 1016.49 1016.94 1017.15 1017.27
1008.80 1010.08 1011.24 1011.68 1012.00 1012.33 1012.64 1013.06 1013.23 1013.51 1013.59 1013.99 1014.31 1014.43 1014.72 1014.99 1015.28 1015.42 1015.61 1015.75 1015.83 1016.02 1016.08 1016.18 1016.19 1016.23 1016.47 1016.49 1016.55 1016.58 1016.57 1016.48 1016.34 1016.08 1015.58 1015.40 1015.26 1015.97 1016.37 1016.44 1016.78 1017.09 1017.41
1009.61 1010.69 1011.37 1011.85 1012.18 1012.45 1012.88 1013.17 1013.41 1013.67 1013.74 1014.07 1014.49 1014.71 1014.91 1015.07 1015.34 1015.53 1015.74 1015.85 1015.90 1016.02 1016.13 1016.29 1016.43 1016.47 1016.56 1016.59 1016.61 1016.60 1016.58 1016.59 1016.44 1016.04 1015.52 1015.40 1015.08 1015.59 1016.06 1016.36 1016.69 1017.02 1017.28
1009.98 1011.05 1011.72 1012.15 1012.41 1012.71 1013.06 1013.43 1013.60 1013.85 1014.12 1014.43 1014.71 1014.90 1015.12 1015.27 1015.50 1015.69 1015.86 1015.99 1016.13 1016.16 1016.21 1016.35 1016.48 1016.57 1016.54 1016.51 1016.54 1016.56 1016.51 1016.59 1016.39 1015.91 1015.33 1014.93 1015.08 1015.37 1015.69 1016.04 1016.48 1016.85 1017.16
1010.35 1011.20 1011.92 1012.43 1012.88 1013.12 1013.40 1013.57 1013.84 1013.92 1014.27 1014.62 1014.97 1015.17 1015.34 1015.59 1015.75 1015.88 1016.13 1016.34 1016.30 1016.39 1016.41 1016.49 1016.53 1016.56 1016.54 1016.47 1016.38 1016.35 1016.36 1016.41 1016.48 1016.15 1015.54 1014.97 1014.96 1015.19 1015.70 1015.84 1016.30 1016.70 1016.97
1010.64 1011.31 1011.78 1012.57 1012.95 1013.39 1013.64 1013.86 1014.19 1014.48 1014.61 1014.84 1015.11 1015.31 1015.53 1015.68 1015.83 1016.07 1016.34 1016.52 1016.64 1016.65 1016.62 1016.64 1016.60 1016.54 1016.43 1016.28 1016.06 1015.98 1015.99 1016.12 1016.18 1016.00 1015.68 1015.14 1015.15 1015.11 1015.23 1015.54 1016.06 1016.48 1016.71
1011.01 1011.63 1011.94 1012.30 1012.98 1013.59 1014.01 1014.27 1014.51 1014.55 1014.88 1015.04 1015.28 1015.41 1015.65 1015.65 1015.78 1016.12 1016.50 1016.63 1016.62 1016.58 1016.64 1016.56 1016.51 1016.34 1016.13 1016.06 1015.72 1015.68 1015.92 1015.77 1015.54 1015.31 1015.14 1014.81 1015.00 1014.98 1015.12 1015.20 1015.71 1016.10 1016.36
1011.40 1011.87 1012.29 1012.68 1013.11 1013.51 1013.88 1014.22 1014.53 1014.80 1014.97 1014.92 1015.05 1015.39 1015.51 1015.63 1015.74 1015.90 1016.29 1016.46 1016.51 1016.40 1016.39 1016.40 1016.23 1016.02 1016.12 1015.77 1015.45 1015.71 1015.76 1015.60 1015.23 1014.97 1014.67 1014.68 1014.29 1014.45 1014.67 1014.98 1015.40 1015.75 1016.10
1010.64 1011.76 1012.30 1012.71 1013.01 1012.97 1013.73 1013.93 1014.24 1014.40 1014.88 1015.15 1015.11 1015.33 1015.37 1015.50 1015.74 1015.97 1016.07 1016.18 1016.30 1016.41 1016.42 1016.43 1016.27 1016.37 1016.27 1016.08 1015.85 1015.72 1015.58 1015.39 1015.06 1015.10 1015.25 1015.10 1014.97 1015.02 1015.24 1015.37 1015.39 1015.55 1015.92
1009.95 1011.18 1012.27 1012.66 1012.78 1012.80 1013.19 1013.50 1013.97 1014.48 1014.87 1015.54 1015.86 1015.78 1015.62 1015.69 1016.07 1016.33 1016.56 1016.54 1016.67 1016.92 1017.05 1017.04 1016.94 1016.93 1016.84 1016.62 1016.34 1016.10 1015.88 1015.64 1015.39 1015.32 1015.28 1015.17 1015.36 1015.56 1015.76 1015.99 1015.72 1015.81 1015.87
1009.58 1010.79 1011.90 1012.58 1012.55 1012.76 1013.11 1013.67 1014.41 1014.75 1015.27 1015.88 1016.33 1016.43 1016.19 1016.36 1016.65 1016.77 1017.04 1017.12 1017.31 1017.41 1017.62 1017.54 1017.40 1017.42 1017.24 1016.94 1016.75 1016.48 1016.24 1016.15 1015.84 1015.43 1015.25 1015.17 1015.22 1015.56 1015.83 1015.83 1015.85 1015.90 1015.99
1009.44 1010.62 1011.44 1012.08 1012.56 1012.81 1013.39 1014.14 1014.77 1015.25 1015.64 1016.14 1016.58 1016.68 1016.67 1016.95 1016.98 1017.10 1017.34 1017.48 1017.68 1017.76 1017.86 1017.74 1017.75 1017.56 1017.37 1017.01 1016.88 1016.62 1016.29 1016.03 1015.96 1015.75 1015.39 1015.19 1015.47 1015.83 1016.05 1016.04 1015.88 1015.53 1015.58
1009.28 1010.90 1011.87 1012.55 1012.98 1013.40 1013.98 1014.53 1014.96 1015.43 1015.94 1016.63 1017.11 1017.25 1017.32 1017.40 1017.47 1017.54 1017.94 1018.24 1018.24 1017.96 1017.96 1018.07 1018.04 1017.89 1017.75 1017.25 1017.16 1016.95 1016.74 1016.15 1015.90 1015.70 1015.51 1015.62 1016.54 1016.92 1017.07 1016.88 1016.56 1016.45 1016.20
1009.10 1010.75 1012.02 1012.70 1013.36 1013.88 1014.23 1014.70 1015.22 1015.72 1016.19 1016.80 1017.34 1017.66 1017.82 1017.88 1017.71 1017.82 1018.26 1018.55 1018.33 1018.28 1018.39 1018.47 1018.43 1018.29 1018.06 1017.84 1017.28 1016.96 1016.82 1016.58 1016.00 1015.58 1015.18 1016.06 1016.62 1016.98 1017.68 1017.85 1017.51 1017.05 1016.88
1008.90 1010.63 1012.06 1012.79 1013.62 1014.03 1014.53 1014.98 1015.47 1015.95 1016.45 1016.94 1017.41 1017.90 1018.25 1018.27 1018.10 1018.22 1018.46 1018.56 1018.22 1018.44 1018.66 1018.91 1018.88 1018.59 1018.27 1017.98 1017.92 1017.29 1016.72 1016.16 1015.91 1015.41 1015.81 1016.42 1016.87 1017.35 1017.62 1017.99 1018.19 1018.09 1017.74
1008.69 1010.22 1011.67 1012.81 1013.48 1013.98 1014.51 1015.17 1015.70 1016.18 1016.62 1017.16 1017.72 1018.07 1018.35 1018.55 1018.49 1018.50 1018.81 1018.99 1018.74 1019.13 1019.34 1019.20 1019.05 1018.65 1018.39 1018.32 1017.91 1017.22 1016.73 1016.21 1016.01 1015.83 1016.22 1016.46 1017.05 1017.48 1017.75 1018.09 1018.22 1018.39 1018.49
1008.73 1010.23 1011.59 1012.68 1013.56 1014.15 1014.58 1014.94 1015.53 1016.11 1016.73 1017.54 1018.06 1018.36 1018.55 1018.70 1018.75 1018.82 1019.15 1019.18 1019.00 1019.40 1019.64 1019.67 1019.50 1019.30 1019.01 1018.78 1018.17 1017.23 1016.18 1016.18 1016.43 1016.37 1016.31 1016.79 1017.03 1017.39 1017.85 1017.96 1018.01 1018.36 1018.49
1009.00 1010.42 1011.66 1012.76 1013.48 1013.91 1014.20 1014.53 1015.11 1015.87 1016.68 1017.49 1018.13 1018.55 1018.88 1019.10 1019.28 1019.43 1019.49 1019.53 1019.43 1019.73 1019.89 1020.05 1019.98 1019.89 1019.32 1019.28 1019.60 1018.59 1017.72 1017.38 1017.33 1016.98 1016.92 1017.17 1017.74 1017.76 1017.74 1017.88 1018.01 1018.09 1018.25
1009.32 1010.58 1011.79 1012.80 1013.50 1013.60 1013.57 1013.99 1014.77 1015.81 1016.81 1017.75 1018.46 1018.86 1019.26 1019.44 1019.52 1019.51 1019.69 1019.73 1019.86 1020.08 1020.35 1020.46 1020.64 1020.41 1020.36 1019.98 1019.85 1019.84 1019.39 1019.40 1019.11 1017.99 1017.92 1017.83 1017.76 1018.08 1018.37 1018.33 1018.26 1018.33 1018.75
1009.41 1010.63 1011.49 1012.45 1013.36 1013.50 1013.58 1014.19 1015.03 1015.76 1016.41 1016.99 1017.59 1018.72 1019.36 1019.56 1019.90 1020.11 1020.27 1020.36 1020.55 1020.86 1021.03 1020.80 1020.77 1020.73 1020.82 1020.69 1020.35 1020.42 1020.20 1020.37 1020.37 1019.95 1018.77 1018.70 1018.47 1018.43 1018.59 1018.86 1019.03 1019.14 1019.27
1009.20 1010.75 1011.68 1012.20 1012.80 1013.19 1013.87 1014.45 1015.11 1015.40 1015.84 1016.58 1017.61 1018.77 1019.50 1019.78 1020.08 1020.52 1020.69 1020.96 1021.14 1021.42 1021.53 1021.55 1021.33 1021.19 1021.31 1021.41 1021.23 1021.24 1020.90 1020.42 1020.83 1020.84 1020.26 1019.88 1019.48 1019.18 1018.88 1019.11 1019.46 1020.13 1020.11
1008.69 1010.22 1011.47 1012.11 1012.56 1013.17 1014.00 1014.35 1014.88 1015.21 1015.82 1016.76 1017.69 1018.72 1019.27 1019.91 1020.55 1020.82 1021.07 1021.32 1021.55 1021.64 1021.76 1021.60 1021.81 1021.76 1021.73 1021.66 1021.64 1021.40 1021.53 1021.57 1021.73 1021.67 1021.55 1021.06 1020.91 1019.89 1019.58 1019.16 1019.69 1020.19 1020.69
Wind_Speed
17 14 14 11 11 11 11 10 11 12 11 9 9 9 9 9 8 9 9 8 7 6 6 6 6 6 7 8 8 9 8 7 6 5 5 7 7 8 7 5 2 10 9
19 14 12 12 12 12 12 11 10 12 11 10 9 9 10 9 8 8 7 6 5 5 4 4 4 5 6 6 7 6 6 5 3 1 3 7 6 4 7 6 4 10 10
17 14 13 12 13 12 11 11 11 11 12 11 9 9 9 8 7 7 7 5 3 4 4 3 2 3 4 4 5 5 4 4 6 3 4 3 5 7 7 7 7 9 9
16 13 13 12 13 13 11 11 11 13 13 11 11 10 9 9 8 7 7 5 4 4 3 3 2 1 2 1 2 2 2 4 8 8 5 6 6 8 11 8 6 7 7
16 14 13 12 12 12 13 10 12 12 13 11 11 10 9 9 8 8 6 5 3 3 2 1 1 2 1 1 2 2 3 5 9 9 8 3 7 10 9 10 6 6 8
17 16 12 11 12 12 11 10 12 11 12 11 10 10 9 9 8 7 5 4 2 0 1 2 3 2 1 3 4 4 6 8 9 8 8 4 8 12 10 10 7 7 8
16 13 12 12 12 13 12 11 11 10 11 10 9 8 8 7 7 5 3 2 1 2 3 5 6 6 4 5 6 7 7 8 8 9 10 6 9 15 13 10 7 6 8
14 13 12 13 13 13 12 11 11 11 10 9 7 8 8 9 9 8 7 6 4 5 5 5 5 6 6 6 7 8 9 7 9 10 10 6 14 15 14 11 9 8 6
14 13 11 11 14 15 13 13 11 11 11 11 10 11 11 11 10 11 10 9 9 8 7 5 5 5 5 7 8 9 9 8 6 7 11 6 12 13 11 10 7 6 8
13 13 12 11 10 10 9 13 13 12 11 10 10 10 10 9 9 8 10 9 8 7 6 5 5 5 7 10 11 11 10 8 7 8 8 8 9 11 12 10 7 7 8
8 11 11 10 10 10 9 9 10 12 11 11 9 8 6 3 4 9 7 6 5 3 2 3 5 8 10 12 15 12 8 5 8 7 6 10 10 11 10 9 8 7 8
10 9 8 10 11 11 9 9 8 8 5 3 5 6 3 4 3 6 6 4 1 1 6 6 8 10 8 4 4 4 3 5 5 5 5 10 16 12 11 10 10 8 8
18 10 9 9 10 11 8 6 3 4 4 3 5 4 3 4 3 3 4 3 1 1 5 5 7 5 7 6 5 4 5 6 5 7 7 12 17 14 13 7 5 7 7
16 17 12 9 8 9 7 6 5 4 4 4 4 6 1 3 4 4 4 5 5 4 6 5 4 6 7 7 7 7 7 5 4 3 3 10 10 8 8 7 7 5 6
13 16 15 13 9 7 5 6 5 4 5 6 5 6 5 5 4 4 3 4 4 5 5 5 5 5 5 6 6 5 6 7 7 4 3 4 5 4 5 5 7 8 11
13 9 9 9 7 5 7 7 5 6 5 6 5 4 6 5 3 4 4 5 5 4 3 4 5 4 4 5 5 6 5 4 6 6 4 3 9 15 13 10 8 5 3
13 11 8 8 7 8 8 7 6 5 6 6 5 6 6 5 4 5 4 5 3 3 6 5 5 5 5 6 6 6 6 6 5 6 5 5 10 19 18 15 14 13 12
15 14 10 9 9 9 7 6 6 5 5 5 5 4 6 4 4 5 5 4 4 5 5 5 4 4 5 5 4 5 4 6 7 6 5 7 5 5 12 17 17 17 18
15 15 11 10 10 9 7 6 6 6 5 5 5 5 6 5 4 5 4 3 3 4 4 4 4 4 4 4 7 6 6 5 5 4 10 11 8 7 5 10 14 15 16
16 15 13 9 9 8 7 7 5 5 5 5 5 4 6 4 5 5 4 4 4 5 5 5 5 5 2 4 7 7 5 5 4 5 6 7 6 6 5 5 4 6 11
15 15 13 11 9 8 7 7 6 6 5 5 5 6 6 5 5 5 4 4 4 5 5 6 4 6 5 6 5 6 4 4 6 4 5 5 5 5 5 3 3 3 2
13 13 12 12 10 8 7 6 6 7 5 6 5 5 6 6 5 6 5 5 6 4 6 6 6 5 3 5 4 4 4 2 6 4 4 5 7 5 5 2 3 4 2
12 11 12 12 11 8 8 7 7 8 7 5 6 5 5 6 6 6 6 5 5 5 4 5 5 6 4 5 6 3 4 3 6 4 5 5 6 5 5 6 6 9 8
9 9 11 12 11 8 8 7 9 7 8 7 6 7 5 6 6 6 6 6 6 4 5 4 5 4 4 4 3 5 3 2 3 5 5 5 6 5 5 6 7 10 10
11 9 7 11 12 7 5 7 7 7 6 7 8 8 7 6 6 6 6 6 6 4 4 6 6 5 4 4 3 3 4 3 4 1 4 7 6 6 3 6 6 5 7
12 11 6 7 9 9 6 7 8 9 10 8 8 7 6 5 5 5 6 5 5 5 5 4 4 6 5 5 4 4 3 2 3 3 3 5 5 5 4 5 6 5 4
Wind_Direction
119 125 122 117 101 89 80 82 103 120 121 124 128 122 115 111 107 102 100 99 100 102 95 77 66 59 51 47 43 41 35 35 38 48 69 85 93 104 97 83 136 94 110
116 121 117 116 107 96 91 90 93 111 116 121 127 126 118 117 112 108 104 103 107 110 97 75 66 61 59 52 43 45 33 25 359 357 103 124 121 123 103 73 341 118 118
117 123 129 117 108 105 104 104 107 106 113 119 123 117 117 119 119 114 114 114 143 139 112 107 77 63 54 47 40 37 22 345 305 292 254 255 143 156 123 91 91 117 126
125 134 128 117 110 106 109 109 104 115 110 117 121 119 121 126 131 129 131 132 130 130 146 153 145 134 113 88 55 9 346 310 294 302 268 215 204 176 141 130 137 145 143
137 125 119 119 123 129 122 112 113 113 113 119 119 123 125 132 136 132 132 136 136 138 145 177 238 124 130 250 282 292 297 290 290 305 280 209 156 175 152 145 164 175 185
113 108 121 120 117 116 115 116 110 114 114 114 120 127 134 135 135 132 133 136 125 123 321 316 328 147 235 257 273 281 287 296 301 281 274 285 112 153 165 163 205 204 200
102 112 122 120 119 119 118 120 118 115 115 119 125 124 127 128 129 125 119 93 58 356 342 339 344 341 293 280 281 283 281 288 297 297 296 211 133 159 173 173 196 207 204
115 112 130 117 110 108 107 107 109 107 107 107 114 111 105 92 85 82 66 50 37 26 13 352 340 322 308 293 279 272 272 272 288 295 293 292 157 164 172 172 195 216 209
126 128 133 125 108 96 95 91 90 93 94 95 93 96 97 95 91 90 81 62 63 53 46 33 11 342 305 275 266 261 259 259 268 282 295 299 172 167 173 177 191 215 223
132 143 133 134 126 115 105 94 92 90 95 101 115 116 120 117 114 105 101 61 55 50 46 24 353 325 297 277 261 250 243 240 251 263 276 287 162 176 176 181 185 217 235
113 125 139 140 127 119 119 119 122 132 135 132 130 125 141 126 164 105 94 83 74 50 354 329 302 288 281 285 258 243 253 242 240 237 242 262 193 205 193 178 182 214 240
139 135 135 129 134 148 137 156 155 147 155 154 140 158 171 129 93 108 136 158 161 298 264 265 269 266 286 298 344 231 239 290 260 245 255 280 253 220 203 175 188 209 235
153 152 150 146 165 151 145 150 140 133 108 62 42 129 167 148 163 185 158 167 94 69 21 346 348 25 360 342 346 332 340 334 331 354 43 60 47 20 342 305 246 230 239
157 144 143 152 184 133 156 174 117 104 107 93 45 357 48 86 44 17 30 13 38 19 21 359 359 1 353 331 334 354 338 327 328 329 58 81 69 56 17 339 326 324 308
157 144 155 170 181 149 120 89 85 111 89 106 82 16 25 62 54 46 34 39 45 26 13 358 15 348 330 342 331 315 319 336 328 321 324 39 92 81 31 347 338 317 301
141 141 128 130 113 118 104 107 95 86 98 83 68 53 43 65 22 63 51 52 35 44 343 360 360 329 327 313 324 321 317 298 293 298 302 319 56 71 65 52 48 58 32
139 144 138 126 136 109 111 120 112 123 105 96 87 60 41 61 48 78 65 46 14 19 31 11 352 349 345 344 331 349 319 316 322 316 315 45 77 59 55 54 56 48 45
149 145 151 148 135 139 131 120 120 106 100 106 105 89 71 53 42 63 77 52 340 26 40 4 3 340 343 326 343 307 311 308 296 277 261 85 86 100 62 52 51 55 52
149 144 152 141 152 129 125 109 102 113 105 104 106 92 85 59 40 88 64 37 12 45 61 19 352 350 328 4 325 315 284 267 283 315 81 71 62 50 72 84 66 48 49
142 145 147 149 138 136 119 123 131 106 105 97 84 89 98 66 31 76 80 28 52 41 36 18 360 344 339 10 313 294 302 295 299 38 79 82 87 75 70 54 55 75 49
141 143 147 143 149 144 153 146 140 136 117 99 95 94 79 76 56 42 76 60 48 70 40 28 349 347 13 3 338 332 283 110 42 15 95 79 50 116 116 89 83 66 49
137 143 150 150 159 172 166 160 153 133 136 119 105 92 91 78 56 65 42 65 29 67 57 39 9 359 3 34 353 294 2 27 3 51 36 80 53 29 9 76 122 118 75
142 147 157 157 172 198 176 122 111 97 107 117 137 114 89 82 76 80 71 56 58 50 61 49 11 37 348 16 41 41 357 5 327 11 25 49 33 43 31 9 13 25 39
148 151 166 165 178 212 130 130 135 149 161 163 127 119 110 86 70 67 53 62 44 59 36 40 39 10 11 20 16 5 24 292 9 332 345 24 11 42 63 41 27 35 25
157 160 175 169 181 145 147 149 161 180 120 111 108 123 107 91 82 69 64 56 55 49 57 43 50 22 32 25 20 358 0 335 62 328 310 350 353 340 42 91 67 40 34
154 150 165 180 181 135 165 170 190 132 134 125 132 142 143 118 93 82 95 82 57 57 39 61 49 48 24 48 357 23 47 24 8 353 334 325 341 312 310 91 91 67 39